#timestamp,LO_Frequency,Hit,StdDev 
1456621215.7,286047003.8,N
1456621235.5,286047005.8,N
1456621255.4,286047001.8,N
1456621275.2,286047004.0,N
1456621295.0,286047002.3,N
1456621295.9,286047002.3,N
1456621315.8,286047004.6,N
1456621335.6,286047006.9,N
1456621355.4,286047008.4,Y
1456621375.3,286047007.1,P
1456621395.1,286047004.7,N
1456621396.0,286047004.7,N
1456621415.8,286047005.2,N
1456621435.7,286047005.9,N
1456621455.5,286047001.9,N
1456621475.3,286047003.1,N
1456621495.1,286047004.8,N
1456621515.9,286047007.1,Y
1456621535.7,286046998.8,P
1456621555.5,286047000.8,N
1456621575.4,286047000.9,N
1456621595.2,286046999.8,N
1456621615.0,286046999.4,N
1456621615.9,286046999.4,N
1456621635.8,286047000.7,N
1456621655.6,286047000.6,N
1456621675.4,286047002.7,N
1456621695.3,286046997.0,N
1456621715.1,286046996.6,N
1456621716.0,286046996.6,N
1456621735.8,286046998.4,N
1456621755.7,286046997.7,N
1456621775.5,286046995.9,N
1456621795.3,286046994.9,N
1456621815.2,286046996.0,N
1456621835.9,286046993.3,N
1456621855.7,286046994.9,N
1456621875.5,286046994.3,N
1456621895.4,286046994.1,N
1456621915.2,286046993.9,N
1456621935.0,286046996.1,N
1456621935.9,286046996.1,N
1456621955.8,286046994.4,N
1456621975.6,286046994.2,N
1456621995.4,286046993.4,N
1456622015.3,286046994.1,N
1456622035.1,286046992.6,N
1456622036.0,286046992.6,N
1456622055.8,286046991.9,N
1456622075.7,286046995.8,N
1456622095.5,286046991.7,N
1456622115.3,286046992.9,N
1456622135.2,286046992.4,N
1456622155.9,286046989.9,Y
1456622175.7,286046995.9,P
1456622195.6,286046999.2,P
1456622215.4,286046999.1,N
1456622235.2,286046995.0,N
1456622255.1,286046995.2,N
1456622256.0,286046995.2,N
1456622275.8,286046996.6,N
1456622295.6,286046997.7,N
1456622315.4,286046999.3,N
1456622335.3,286046994.1,Y
1456622355.1,286046997.3,P
1456622375.8,286046997.0,P
1456622395.7,286046995.6,P
1456622415.5,286046996.7,Y
1456622435.4,286047000.2,P
1456622455.2,286046999.7,N
1456622475.0,286047003.9,N
1456622475.9,286047003.9,N
1456622495.7,286047001.8,N
1456622515.6,286047002.1,N
1456622535.4,286047005.5,N
1456622555.2,286047002.0,N
1456622575.1,286047004.4,N
1456622576.0,286047004.4,N
1456622595.8,286047004.8,N
1456622615.6,286047008.8,Y
1456622635.5,286047005.3,P
1456622655.3,286047005.2,P
1456622675.1,286047007.6,P
1456622695.9,286047008.8,Y
1456622715.7,286047002.3,P
1456622735.5,286047005.7,P
1456622755.4,286047007.1,P
1456622775.2,286047001.7,N
1456622795.0,286047000.5,N
1456622795.9,286047000.5,N
1456622815.8,286047000.6,N
1456622835.6,286046999.0,N
1456622855.4,286046999.2,N
1456622875.3,286046998.9,N
1456622895.1,286047000.8,N
1456622896.0,286047000.8,N
1456622915.8,286047001.1,N
1456622935.7,286047001.0,N
1456622955.5,286046998.8,N
1456622975.3,286046996.8,N
1456622995.1,286046999.5,N
1456623015.9,286046999.3,N
1456623035.7,286047002.8,N
1456623055.5,286047002.3,N
1456623075.4,286046998.7,N
1456623095.2,286047000.9,N
1456623115.0,286046997.9,N
1456623115.9,286046997.9,N
1456623135.8,286046993.7,N
1456623155.6,286046995.9,N
1456623175.4,286046991.8,N
1456623195.3,286046995.7,N
1456623215.1,286046993.4,N
1456623216.0,286046993.4,N
1456623235.8,286046993.4,N
1456623255.7,286046993.7,N
1456623275.5,286046990.6,N
1456623295.3,286046990.1,N
1456623315.2,286046990.4,N
1456623335.9,286046990.6,N
1456623355.7,286046990.1,N
1456623375.5,286046992.6,N
1456623395.4,286046992.5,N
1456623415.2,286046991.7,N
1456623435.0,286046992.6,N
1456623435.9,286046992.6,N
1456623455.8,286046993.1,N
1456623475.6,286046989.9,N
1456623495.4,286046987.1,Y
1456623515.3,286046993.4,P
1456623535.1,286046995.5,P
1456623555.8,286046997.7,N
1456623575.7,286046999.4,N
1456623595.5,286046995.4,N
1456623615.3,286046998.9,N
1456623635.2,286046998.9,N
1456623655.9,286047002.6,N
1456623675.7,286046996.7,N
1456623695.6,286046999.5,N
1456623715.4,286046999.5,N
1456623735.2,286046996.8,N
1456623755.1,286046997.4,N
1456623756.0,286046997.4,N
1456623775.8,286046999.5,N
1456623795.6,286046995.7,N
1456623815.5,286046994.9,N
1456623835.3,286046996.7,N
1456623855.1,286046999.0,N
1456623875.8,286046998.1,N
1456623895.7,286046998.4,N
1456623915.5,286046997.4,N
1456623935.3,286046997.6,N
1456623955.2,286046997.4,N
1456623975.0,286046996.8,N
1456623975.9,286046996.8,N
1456623995.7,286046996.9,N
1456624015.6,286046995.3,N
1456624035.4,286046996.4,N
1456624055.2,286046997.5,N
1456624075.1,286046996.6,N
1456624076.0,286046996.6,N
1456624095.8,286046996.2,N
1456624115.6,286046995.7,N
1456624135.5,286046997.0,N
1456624155.3,286046998.9,N
1456624175.1,286047000.6,N
1456624195.9,286046997.0,N
1456624215.7,286046997.3,N
1456624235.5,286046996.2,N
1456624255.4,286046995.1,Y
1456624275.2,286046997.7,P
1456624295.0,286046997.4,P
1456624295.9,286046997.4,P
1456624315.8,286046994.0,Y
1456624335.6,286046993.4,P
1456624355.4,286046995.6,N
1456624375.3,286046995.2,N
1456624395.1,286046996.0,N
1456624396.0,286046996.0,Y
1456624415.8,286046997.0,P
1456624435.7,286047000.9,N
1456624455.5,286046998.3,N
1456624475.3,286046999.6,N
1456624495.2,286046996.6,N
1456624515.9,286046996.5,N
1456624535.7,286046996.5,N
1456624555.5,286046998.9,N
1456624575.4,286047000.4,N
1456624595.2,286047002.7,N
1456624615.0,286046999.9,N
1456624615.9,286046999.9,N
1456624635.8,286047000.4,N
1456624655.6,286047003.0,N
1456624675.4,286047004.5,N
1456624695.3,286047006.8,N
1456624715.1,286047003.8,N
1456624716.0,286047003.8,N
1456624735.8,286047003.1,N
1456624755.7,286047005.1,N
1456624775.5,286047006.1,N
1456624795.3,286047010.8,Y
